<?xml version="1.0" encoding="UTF-8" standalone="no" ?>
<gpx xmlns="http://www.topografix.com/GPX/1/1" xmlns:xsi="http://www.w3.org/2001/XMLSchema-instance" xsi:schemaLocation="http://www.topografix.com/GPX/1/1 http://www.topografix.com/GPX/1/1/gpx.xsd" version="1.1" creator="VisuGPX - https://www.visugpx.com">
  <metadata>
    <name>112011</name>
    <desc><![CDATA[très agréable sortie 24.5]]></desc>
  </metadata>
  <trk>
    <name><![CDATA[ACTIVE LOG084534]]></name>
    <trkseg>
      <trkpt lat="48.38242" lon="-4.50372">
        <ele>47.475</ele>
        <time>2011-04-07T06:45:34Z</time>
      </trkpt>
      <trkpt lat="48.38241" lon="-4.50373">
        <ele>47.567</ele>
        <time>2011-04-07T06:45:35Z</time>
      </trkpt>
      <trkpt lat="48.38233" lon="-4.50354">
        <ele>44.872</ele>
        <time>2011-04-07T06:45:48Z</time>
      </trkpt>
      <trkpt lat="48.38233" lon="-4.50354">
        <ele>44.444</ele>
        <time>2011-04-07T06:45:49Z</time>
      </trkpt>
      <trkpt lat="48.38227" lon="-4.50276">
        <ele>43.921</ele>
        <time>2011-04-07T06:45:54Z</time>
      </trkpt>
      <trkpt lat="48.38226" lon="-4.50245">
        <ele>43.228</ele>
        <time>2011-04-07T06:45:58Z</time>
      </trkpt>
      <trkpt lat="48.38238" lon="-4.5021">
        <ele>43.107</ele>
        <time>2011-04-07T06:46:03Z</time>
      </trkpt>
      <trkpt lat="48.3831" lon="-4.50226">
        <ele>39.841</ele>
        <time>2011-04-07T06:46:16Z</time>
      </trkpt>
      <trkpt lat="48.3832" lon="-4.50229">
        <ele>39.101</ele>
        <time>2011-04-07T06:46:18Z</time>
      </trkpt>
      <trkpt lat="48.38358" lon="-4.50239">
        <ele>36.01</ele>
        <time>2011-04-07T06:46:26Z</time>
      </trkpt>
      <trkpt lat="48.38366" lon="-4.5024">
        <ele>35.003</ele>
        <time>2011-04-07T06:46:28Z</time>
      </trkpt>
      <trkpt lat="48.38383" lon="-4.50242">
        <ele>32.955</ele>
        <time>2011-04-07T06:46:38Z</time>
      </trkpt>
      <trkpt lat="48.38383" lon="-4.50242">
        <ele>32.117</ele>
        <time>2011-04-07T06:46:42Z</time>
      </trkpt>
      <trkpt lat="48.38408" lon="-4.5025">
        <ele>32.152</ele>
        <time>2011-04-07T06:46:44Z</time>
      </trkpt>
      <trkpt lat="48.38429" lon="-4.50255">
        <ele>35.246</ele>
        <time>2011-04-07T06:46:52Z</time>
      </trkpt>
      <trkpt lat="48.38432" lon="-4.50256">
        <ele>35.891</ele>
        <time>2011-04-07T06:46:54Z</time>
      </trkpt>
      <trkpt lat="48.38458" lon="-4.50262">
        <ele>39.019</ele>
        <time>2011-04-07T06:47:04Z</time>
      </trkpt>
      <trkpt lat="48.38478" lon="-4.50268">
        <ele>40.937</ele>
        <time>2011-04-07T06:47:11Z</time>
      </trkpt>
      <trkpt lat="48.38506" lon="-4.50276">
        <ele>43.942</ele>
        <time>2011-04-07T06:47:22Z</time>
      </trkpt>
      <trkpt lat="48.38546" lon="-4.50288">
        <ele>46.901</ele>
        <time>2011-04-07T06:47:36Z</time>
      </trkpt>
      <trkpt lat="48.38576" lon="-4.50295">
        <ele>49.921</ele>
        <time>2011-04-07T06:47:46Z</time>
      </trkpt>
      <trkpt lat="48.38587" lon="-4.50297">
        <ele>50.941</ele>
        <time>2011-04-07T06:47:58Z</time>
      </trkpt>
      <trkpt lat="48.38613" lon="-4.50303">
        <ele>51.269</ele>
        <time>2011-04-07T06:48:22Z</time>
      </trkpt>
      <trkpt lat="48.38617" lon="-4.50303">
        <ele>51.338</ele>
        <time>2011-04-07T06:48:23Z</time>
      </trkpt>
      <trkpt lat="48.38697" lon="-4.50314">
        <ele>54.31</ele>
        <time>2011-04-07T06:48:41Z</time>
      </trkpt>
      <trkpt lat="48.38776" lon="-4.50334">
        <ele>51.338</ele>
        <time>2011-04-07T06:48:55Z</time>
      </trkpt>
      <trkpt lat="48.3885" lon="-4.50349">
        <ele>49.713</ele>
        <time>2011-04-07T06:49:05Z</time>
      </trkpt>
      <trkpt lat="48.38877" lon="-4.50354">
        <ele>46.832</ele>
        <time>2011-04-07T06:49:08Z</time>
      </trkpt>
      <trkpt lat="48.38986" lon="-4.5036">
        <ele>46.642</ele>
        <time>2011-04-07T06:49:22Z</time>
      </trkpt>
      <trkpt lat="48.39011" lon="-4.50358">
        <ele>46.732</ele>
        <time>2011-04-07T06:49:26Z</time>
      </trkpt>
      <trkpt lat="48.3908" lon="-4.50361">
        <ele>50.32</ele>
        <time>2011-04-07T06:49:39Z</time>
      </trkpt>
      <trkpt lat="48.39154" lon="-4.50371">
        <ele>52.294</ele>
        <time>2011-04-07T06:49:54Z</time>
      </trkpt>
      <trkpt lat="48.39172" lon="-4.50377">
        <ele>51.246</ele>
        <time>2011-04-07T06:49:58Z</time>
      </trkpt>
      <trkpt lat="48.39203" lon="-4.50362">
        <ele>47.387</ele>
        <time>2011-04-07T06:50:05Z</time>
      </trkpt>
      <trkpt lat="48.39203" lon="-4.50362">
        <ele>46.39</ele>
        <time>2011-04-07T06:50:07Z</time>
      </trkpt>
      <trkpt lat="48.39209" lon="-4.5033">
        <ele>45.573</ele>
        <time>2011-04-07T06:50:09Z</time>
      </trkpt>
      <trkpt lat="48.39241" lon="-4.50166">
        <ele>43.387</ele>
        <time>2011-04-07T06:50:31Z</time>
      </trkpt>
      <trkpt lat="48.39284" lon="-4.49958">
        <ele>43.03</ele>
        <time>2011-04-07T06:51:00Z</time>
      </trkpt>
      <trkpt lat="48.39317" lon="-4.49808">
        <ele>39.998</ele>
        <time>2011-04-07T06:51:17Z</time>
      </trkpt>
      <trkpt lat="48.39338" lon="-4.49702">
        <ele>36.944</ele>
        <time>2011-04-07T06:51:27Z</time>
      </trkpt>
      <trkpt lat="48.39374" lon="-4.49531">
        <ele>33.809</ele>
        <time>2011-04-07T06:51:45Z</time>
      </trkpt>
      <trkpt lat="48.39389" lon="-4.49458">
        <ele>32.322</ele>
        <time>2011-04-07T06:51:56Z</time>
      </trkpt>
      <trkpt lat="48.39389" lon="-4.49456">
        <ele>32.465</ele>
        <time>2011-04-07T06:51:57Z</time>
      </trkpt>
      <trkpt lat="48.39376" lon="-4.49398">
        <ele>32.308</ele>
        <time>2011-04-07T06:52:01Z</time>
      </trkpt>
      <trkpt lat="48.39397" lon="-4.49411">
        <ele>31.117</ele>
        <time>2011-04-07T06:52:12Z</time>
      </trkpt>
      <trkpt lat="48.39409" lon="-4.49365">
        <ele>30.694</ele>
        <time>2011-04-07T06:52:22Z</time>
      </trkpt>
      <trkpt lat="48.39425" lon="-4.4938">
        <ele>30.594</ele>
        <time>2011-04-07T06:52:26Z</time>
      </trkpt>
      <trkpt lat="48.3943" lon="-4.4939">
        <ele>29.627</ele>
        <time>2011-04-07T06:52:28Z</time>
      </trkpt>
      <trkpt lat="48.39455" lon="-4.49438">
        <ele>29.845</ele>
        <time>2011-04-07T06:52:37Z</time>
      </trkpt>
      <trkpt lat="48.39449" lon="-4.49449">
        <ele>30.608</ele>
        <time>2011-04-07T06:52:42Z</time>
      </trkpt>
      <trkpt lat="48.39405" lon="-4.49508">
        <ele>31.501</ele>
        <time>2011-04-07T06:52:56Z</time>
      </trkpt>
      <trkpt lat="48.39405" lon="-4.49508">
        <ele>31.644</ele>
        <time>2011-04-07T06:53:04Z</time>
      </trkpt>
      <trkpt lat="48.39405" lon="-4.49508">
        <ele>31.728</ele>
        <time>2011-04-07T06:53:16Z</time>
      </trkpt>
      <trkpt lat="48.39409" lon="-4.49502">
        <ele>32.493</ele>
        <time>2011-04-07T06:56:38Z</time>
      </trkpt>
      <trkpt lat="48.39455" lon="-4.49441">
        <ele>31.437</ele>
        <time>2011-04-07T06:56:55Z</time>
      </trkpt>
      <trkpt lat="48.39453" lon="-4.49433">
        <ele>31.267</ele>
        <time>2011-04-07T06:56:59Z</time>
      </trkpt>
      <trkpt lat="48.39429" lon="-4.49388">
        <ele>31.331</ele>
        <time>2011-04-07T06:57:09Z</time>
      </trkpt>
      <trkpt lat="48.39413" lon="-4.49358">
        <ele>31.236</ele>
        <time>2011-04-07T06:57:16Z</time>
      </trkpt>
      <trkpt lat="48.39387" lon="-4.49299">
        <ele>31.483</ele>
        <time>2011-04-07T06:57:27Z</time>
      </trkpt>
      <trkpt lat="48.39365" lon="-4.49254">
        <ele>31.999</ele>
        <time>2011-04-07T06:57:39Z</time>
      </trkpt>
      <trkpt lat="48.39347" lon="-4.49218">
        <ele>32.189</ele>
        <time>2011-04-07T06:57:46Z</time>
      </trkpt>
      <trkpt lat="48.39314" lon="-4.49163">
        <ele>35.844</ele>
        <time>2011-04-07T06:57:59Z</time>
      </trkpt>
      <trkpt lat="48.39293" lon="-4.49126">
        <ele>38.88</ele>
        <time>2011-04-07T06:58:10Z</time>
      </trkpt>
      <trkpt lat="48.39251" lon="-4.49051">
        <ele>41.96</ele>
        <time>2011-04-07T06:58:26Z</time>
      </trkpt>
      <trkpt lat="48.39246" lon="-4.4904">
        <ele>42.633</ele>
        <time>2011-04-07T06:58:35Z</time>
      </trkpt>
      <trkpt lat="48.39246" lon="-4.4904">
        <ele>42.792</ele>
        <time>2011-04-07T06:59:01Z</time>
      </trkpt>
      <trkpt lat="48.39237" lon="-4.49023">
        <ele>43.804</ele>
        <time>2011-04-07T06:59:10Z</time>
      </trkpt>
      <trkpt lat="48.3919" lon="-4.48931">
        <ele>46.758</ele>
        <time>2011-04-07T06:59:28Z</time>
      </trkpt>
      <trkpt lat="48.39156" lon="-4.48865">
        <ele>48.393</ele>
        <time>2011-04-07T06:59:44Z</time>
      </trkpt>
      <trkpt lat="48.39148" lon="-4.4885">
        <ele>48.439</ele>
        <time>2011-04-07T06:59:55Z</time>
      </trkpt>
      <trkpt lat="48.39143" lon="-4.4884">
        <ele>48.422</ele>
        <time>2011-04-07T07:00:03Z</time>
      </trkpt>
      <trkpt lat="48.39142" lon="-4.48813">
        <ele>48.454</ele>
        <time>2011-04-07T07:00:10Z</time>
      </trkpt>
      <trkpt lat="48.39169" lon="-4.48783">
        <ele>50.147</ele>
        <time>2011-04-07T07:00:25Z</time>
      </trkpt>
      <trkpt lat="48.39199" lon="-4.48749">
        <ele>51.725</ele>
        <time>2011-04-07T07:00:36Z</time>
      </trkpt>
      <trkpt lat="48.39221" lon="-4.48756">
        <ele>52.442</ele>
        <time>2011-04-07T07:00:42Z</time>
      </trkpt>
      <trkpt lat="48.39327" lon="-4.48786">
        <ele>55.57</ele>
        <time>2011-04-07T07:01:07Z</time>
      </trkpt>
      <trkpt lat="48.39443" lon="-4.48819">
        <ele>58.622</ele>
        <time>2011-04-07T07:01:34Z</time>
      </trkpt>
      <trkpt lat="48.39528" lon="-4.48844">
        <ele>61.694</ele>
        <time>2011-04-07T07:01:55Z</time>
      </trkpt>
      <trkpt lat="48.3964" lon="-4.48874">
        <ele>59.544</ele>
        <time>2011-04-07T07:02:19Z</time>
      </trkpt>
      <trkpt lat="48.39714" lon="-4.48896">
        <ele>56.39</ele>
        <time>2011-04-07T07:02:35Z</time>
      </trkpt>
      <trkpt lat="48.39726" lon="-4.489">
        <ele>56.333</ele>
        <time>2011-04-07T07:02:40Z</time>
      </trkpt>
      <trkpt lat="48.39726" lon="-4.489">
        <ele>56.153</ele>
        <time>2011-04-07T07:03:02Z</time>
      </trkpt>
      <trkpt lat="48.3973" lon="-4.48901">
        <ele>56.118</ele>
        <time>2011-04-07T07:03:29Z</time>
      </trkpt>
      <trkpt lat="48.39751" lon="-4.48907">
        <ele>55.332</ele>
        <time>2011-04-07T07:03:36Z</time>
      </trkpt>
      <trkpt lat="48.39779" lon="-4.48893">
        <ele>54.628</ele>
        <time>2011-04-07T07:03:42Z</time>
      </trkpt>
      <trkpt lat="48.39791" lon="-4.48882">
        <ele>54.084</ele>
        <time>2011-04-07T07:03:46Z</time>
      </trkpt>
      <trkpt lat="48.39881" lon="-4.48749">
        <ele>54.201</ele>
        <time>2011-04-07T07:04:10Z</time>
      </trkpt>
      <trkpt lat="48.39948" lon="-4.48649">
        <ele>50.7</ele>
        <time>2011-04-07T07:04:24Z</time>
      </trkpt>
      <trkpt lat="48.39975" lon="-4.48607">
        <ele>49.648</ele>
        <time>2011-04-07T07:04:30Z</time>
      </trkpt>
      <trkpt lat="48.40027" lon="-4.48531">
        <ele>46.255</ele>
        <time>2011-04-07T07:04:40Z</time>
      </trkpt>
      <trkpt lat="48.40097" lon="-4.48433">
        <ele>49.115</ele>
        <time>2011-04-07T07:04:55Z</time>
      </trkpt>
      <trkpt lat="48.40108" lon="-4.48414">
        <ele>52.128</ele>
        <time>2011-04-07T07:05:02Z</time>
      </trkpt>
      <trkpt lat="48.4012" lon="-4.4839">
        <ele>52.27</ele>
        <time>2011-04-07T07:05:03Z</time>
      </trkpt>
      <trkpt lat="48.40159" lon="-4.48333">
        <ele>55.886</ele>
        <time>2011-04-07T07:05:16Z</time>
      </trkpt>
      <trkpt lat="48.40224" lon="-4.48239">
        <ele>58.372</ele>
        <time>2011-04-07T07:05:38Z</time>
      </trkpt>
      <trkpt lat="48.40252" lon="-4.482">
        <ele>59.998</ele>
        <time>2011-04-07T07:05:53Z</time>
      </trkpt>
      <trkpt lat="48.40272" lon="-4.48171">
        <ele>59.191</ele>
        <time>2011-04-07T07:06:21Z</time>
      </trkpt>
      <trkpt lat="48.40335" lon="-4.48078">
        <ele>59.71</ele>
        <time>2011-04-07T07:06:33Z</time>
      </trkpt>
      <trkpt lat="48.40434" lon="-4.47933">
        <ele>59.867</ele>
        <time>2011-04-07T07:06:53Z</time>
      </trkpt>
      <trkpt lat="48.405" lon="-4.47837">
        <ele>60.207</ele>
        <time>2011-04-07T07:07:13Z</time>
      </trkpt>
      <trkpt lat="48.40512" lon="-4.47821">
        <ele>59.56</ele>
        <time>2011-04-07T07:07:22Z</time>
      </trkpt>
      <trkpt lat="48.40521" lon="-4.47807">
        <ele>59.236</ele>
        <time>2011-04-07T07:07:30Z</time>
      </trkpt>
      <trkpt lat="48.40536" lon="-4.47784">
        <ele>58.955</ele>
        <time>2011-04-07T07:07:35Z</time>
      </trkpt>
      <trkpt lat="48.40612" lon="-4.47667">
        <ele>61.352</ele>
        <time>2011-04-07T07:07:59Z</time>
      </trkpt>
      <trkpt lat="48.40617" lon="-4.47659">
        <ele>60.695</ele>
        <time>2011-04-07T07:08:02Z</time>
      </trkpt>
      <trkpt lat="48.40623" lon="-4.4765">
        <ele>58.78</ele>
        <time>2011-04-07T07:08:06Z</time>
      </trkpt>
      <trkpt lat="48.40672" lon="-4.47582">
        <ele>55.663</ele>
        <time>2011-04-07T07:08:14Z</time>
      </trkpt>
      <trkpt lat="48.40679" lon="-4.47559">
        <ele>55.834</ele>
        <time>2011-04-07T07:08:17Z</time>
      </trkpt>
      <trkpt lat="48.40684" lon="-4.4754">
        <ele>55.499</ele>
        <time>2011-04-07T07:08:20Z</time>
      </trkpt>
      <trkpt lat="48.40718" lon="-4.47537">
        <ele>53.222</ele>
        <time>2011-04-07T07:08:26Z</time>
      </trkpt>
      <trkpt lat="48.40731" lon="-4.47534">
        <ele>52.622</ele>
        <time>2011-04-07T07:08:28Z</time>
      </trkpt>
      <trkpt lat="48.40788" lon="-4.47546">
        <ele>54.812</ele>
        <time>2011-04-07T07:08:39Z</time>
      </trkpt>
      <trkpt lat="48.40839" lon="-4.47573">
        <ele>58.775</ele>
        <time>2011-04-07T07:08:51Z</time>
      </trkpt>
      <trkpt lat="48.40924" lon="-4.47612">
        <ele>61.033</ele>
        <time>2011-04-07T07:09:10Z</time>
      </trkpt>
      <trkpt lat="48.41027" lon="-4.47626">
        <ele>62.85</ele>
        <time>2011-04-07T07:09:33Z</time>
      </trkpt>
      <trkpt lat="48.4112" lon="-4.47619">
        <ele>62.135</ele>
        <time>2011-04-07T07:09:51Z</time>
      </trkpt>
      <trkpt lat="48.41229" lon="-4.47589">
        <ele>62.937</ele>
        <time>2011-04-07T07:10:13Z</time>
      </trkpt>
      <trkpt lat="48.41243" lon="-4.47565">
        <ele>63.552</ele>
        <time>2011-04-07T07:10:18Z</time>
      </trkpt>
      <trkpt lat="48.41282" lon="-4.47566">
        <ele>63.493</ele>
        <time>2011-04-07T07:10:25Z</time>
      </trkpt>
      <trkpt lat="48.41376" lon="-4.47526">
        <ele>66.563</ele>
        <time>2011-04-07T07:10:44Z</time>
      </trkpt>
      <trkpt lat="48.41444" lon="-4.47513">
        <ele>69.658</ele>
        <time>2011-04-07T07:11:00Z</time>
      </trkpt>
      <trkpt lat="48.41469" lon="-4.47513">
        <ele>70.266</ele>
        <time>2011-04-07T07:11:06Z</time>
      </trkpt>
      <trkpt lat="48.41524" lon="-4.47532">
        <ele>73.678</ele>
        <time>2011-04-07T07:11:20Z</time>
      </trkpt>
      <trkpt lat="48.41569" lon="-4.47548">
        <ele>76.87</ele>
        <time>2011-04-07T07:11:32Z</time>
      </trkpt>
      <trkpt lat="48.41605" lon="-4.47568">
        <ele>79.954</ele>
        <time>2011-04-07T07:11:43Z</time>
      </trkpt>
      <trkpt lat="48.41644" lon="-4.47589">
        <ele>83.159</ele>
        <time>2011-04-07T07:11:54Z</time>
      </trkpt>
      <trkpt lat="48.41738" lon="-4.47641">
        <ele>84.457</ele>
        <time>2011-04-07T07:12:17Z</time>
      </trkpt>
      <trkpt lat="48.41776" lon="-4.4766">
        <ele>83.605</ele>
        <time>2011-04-07T07:12:25Z</time>
      </trkpt>
      <trkpt lat="48.41863" lon="-4.47675">
        <ele>80.232</ele>
        <time>2011-04-07T07:12:40Z</time>
      </trkpt>
      <trkpt lat="48.41936" lon="-4.47683">
        <ele>77.202</ele>
        <time>2011-04-07T07:12:50Z</time>
      </trkpt>
    </trkseg>
  </trk>
</gpx>